Weather History for Grove, OK

Change the Weather History Date:

Wednesday, December 12, 2012

  Actual Average (KSLG) Record (KSLG)
Temperature  
Mean Temperature 38 °F -  
Max Temperature 53 °F 46 °F 59 °F (2004)
Min Temperature 23 °F 30 °F 6 °F (2000)
Degree Days  
Heating Degree Days 27    
Moisture  
Dew Point 19 °F    
Average Humidity 56    
Maximum Humidity 100    
Minimum Humidity 19    
Precipitation  
Precipitation 0.00 in - - ()
Sea Level Pressure  
Sea Level Pressure 30.24 in    
Wind  
Wind Speed 3 mph (South)    
Max Wind Speed 14 mph    
Max Gust Speed 21 mph    
Visibility 10 miles    
Events      
Averages and records for this station are not official NWS values.
T = Trace of Precipitation, MM = Missing Value Source: NWS Daily Summary

Daily Weather History Graph

Daily Weather History Graph

Search for Another Location

Airport:

Trip Planner

Search our weather history database for the weather conditions in past years. The results will help you decide how hot, cold, wet, or windy it might be!

Date:

Astronomy

Dec. 12, 2012 Rise Set
Actual Time 7:22 AM CST 5:03 PM CST
Civil Twilight 6:53 AM CST 5:32 PM CST
Nautical Twilight 6:21 AM CST 6:04 PM CST
Astronomical Twilight 5:49 AM CST 6:36 PM CST
Moon 6:27 AM CST (12/12) 4:41 PM CST (12/12)
Length of Visible Light 10h 39m
Length of Day
9h 41m
Waning Crescent, 1% of the Moon is Illuminated
Dec 12
Waning Crescent
Dec 13
New
Dec 19
First Quarter
Dec 28
Full
Jan 4
Last Quarter

Hourly Weather History & Observations

Time (CST) Temp. Windchill Dew Point Humidity Pressure Visibility Wind Dir Wind Speed Gust Speed Precip Events Conditions
12:15 AM 28.4 °F - 24.8 °F 86% 30.24 in 10.0 mi Calm Calm - N/A   Clear
12:35 AM 26.6 °F - 23.0 °F 86% 30.23 in 10.0 mi Calm Calm - N/A   Clear
12:55 AM 26.6 °F - 23.0 °F 86% 30.23 in 10.0 mi Calm Calm - N/A   Clear
1:15 AM 26.6 °F - 23.0 °F 86% 30.23 in 10.0 mi Calm Calm - N/A   Clear
1:55 AM 26.6 °F - 21.2 °F 80% 30.23 in 10.0 mi Calm Calm - N/A   Clear
2:15 AM 26.6 °F - 23.0 °F 86% 30.23 in 10.0 mi Calm Calm - N/A   Clear
2:35 AM 24.8 °F - 21.2 °F 86% 30.23 in 10.0 mi Calm Calm - N/A   Clear
2:55 AM 23.0 °F - 23.0 °F 100% 30.23 in 10.0 mi Calm Calm - N/A   Clear
3:15 AM 24.8 °F - 23.0 °F 93% 30.23 in 10.0 mi Calm Calm - N/A   Clear
3:55 AM 23.0 °F - 21.2 °F 93% 30.23 in 10.0 mi Calm Calm - N/A   Clear
4:15 AM 23.0 °F - 21.2 °F 93% 30.23 in 10.0 mi Calm Calm - N/A   Clear
4:35 AM 23.0 °F - 21.2 °F 93% 30.23 in 10.0 mi Calm Calm - N/A   Clear
4:55 AM 23.0 °F - 23.0 °F 100% 30.24 in 10.0 mi Calm Calm - N/A   Clear
5:15 AM 23.0 °F - 23.0 °F 100% 30.24 in 10.0 mi Calm Calm - N/A   Clear
5:35 AM 23.0 °F - 23.0 °F 100% 30.24 in 10.0 mi Calm Calm - N/A   Clear
5:55 AM 23.0 °F - 23.0 °F 100% 30.25 in 10.0 mi Calm Calm - N/A   Clear
6:15 AM 23.0 °F - 23.0 °F 100% 30.26 in 10.0 mi Calm Calm - N/A   Clear
6:35 AM 23.0 °F - 23.0 °F 100% 30.27 in 10.0 mi Calm Calm - N/A   Clear
6:55 AM 23.0 °F - 23.0 °F 100% 30.27 in 10.0 mi Calm Calm - N/A   Clear
7:15 AM 23.0 °F - 23.0 °F 100% 30.28 in 10.0 mi Calm Calm - N/A   Clear
7:35 AM 23.0 °F - 23.0 °F 100% 30.28 in 10.0 mi Calm Calm - N/A   Clear
7:55 AM 23.0 °F - 23.0 °F 100% 30.28 in 10.0 mi Calm Calm - N/A   Clear
8:15 AM 24.8 °F - 24.8 °F 100% 30.29 in 10.0 mi Calm Calm - N/A   Clear
8:35 AM 30.2 °F - 28.4 °F 93% 30.29 in 10.0 mi Calm Calm - N/A   Clear
8:55 AM 33.8 °F 30.8 °F 26.6 °F 75% 30.29 in 10.0 mi SSE 3.5 mph - N/A   Clear
9:15 AM 35.6 °F 32.8 °F 23.0 °F 60% 30.29 in 10.0 mi South 3.5 mph - N/A   Clear
9:35 AM 39.2 °F 34.2 °F 23.0 °F 52% 30.30 in 10.0 mi South 6.9 mph - N/A   Clear
9:55 AM 41.0 °F 34.7 °F 21.2 °F 45% 30.30 in 10.0 mi South 10.4 mph - N/A   Clear
10:15 AM 42.8 °F 37.0 °F 21.2 °F 42% 30.31 in 10.0 mi SSW 10.4 mph - N/A   Clear
10:35 AM 44.6 °F 39.7 °F 19.4 °F 37% 30.31 in 10.0 mi SSW 9.2 mph - N/A   Clear
10:55 AM 44.6 °F 40.2 °F 19.4 °F 37% 30.30 in 10.0 mi SSW 8.1 mph - N/A   Clear
11:15 AM 46.4 °F 41.5 °F 19.4 °F 34% 30.30 in 10.0 mi SSW 10.4 mph - N/A   Clear
11:35 AM 48.2 °F - 17.6 °F 30% 30.29 in 10.0 mi SSW 10.4 mph - N/A   Clear
11:55 AM 50.0 °F - 17.6 °F 28% 30.28 in 10.0 mi South 10.4 mph - N/A   Clear
12:15 PM 50.0 °F - 14.0 °F 24% 30.28 in 10.0 mi South 11.5 mph - N/A   Clear
12:35 PM 51.8 °F - 12.2 °F 21% 30.26 in 10.0 mi SSW 13.8 mph 17.3 mph N/A   Clear
12:55 PM 51.8 °F - 12.2 °F 21% 30.25 in 10.0 mi South 10.4 mph 17.3 mph N/A   Clear
1:15 PM 51.8 °F - 12.2 °F 21% 30.24 in 10.0 mi South 13.8 mph 20.7 mph N/A   Clear
1:55 PM 51.8 °F - 14.0 °F 22% 30.23 in 10.0 mi South 12.7 mph 20.7 mph N/A   Clear
2:15 PM 51.8 °F - 14.0 °F 22% 30.22 in 10.0 mi South 12.7 mph - N/A   Clear
2:35 PM 51.8 °F - 14.0 °F 22% 30.22 in 10.0 mi South 10.4 mph - N/A   Clear
2:55 PM 53.6 °F - 12.2 °F 19% 30.22 in 10.0 mi South 10.4 mph - N/A   Clear
3:15 PM 53.6 °F - 12.2 °F 19% 30.22 in 10.0 mi South 9.2 mph - N/A   Clear
3:35 PM 51.8 °F - 12.2 °F 21% 30.22 in 10.0 mi South 8.1 mph - N/A   Clear
3:55 PM 51.8 °F - 12.2 °F 21% 30.22 in 10.0 mi South 11.5 mph - N/A   Clear
4:15 PM 51.8 °F - 12.2 °F 21% 30.22 in 10.0 mi South 10.4 mph - N/A   Clear
4:35 PM 50.0 °F - 12.2 °F 22% 30.21 in 10.0 mi SSE 8.1 mph - N/A   Clear
4:55 PM 48.2 °F - 12.2 °F 24% 30.22 in 10.0 mi South 6.9 mph - N/A   Clear
5:15 PM 46.4 °F 42.9 °F 12.2 °F 25% 30.22 in 10.0 mi South 6.9 mph - N/A   Clear
5:35 PM 44.6 °F 41.4 °F 14.0 °F 29% 30.21 in 10.0 mi SSE 5.8 mph - N/A   Clear
5:55 PM 42.8 °F 40.1 °F 14.0 °F 31% 30.21 in 10.0 mi SSE 4.6 mph - N/A   Clear
6:15 PM 41.0 °F 36.4 °F 15.8 °F 36% 30.21 in 10.0 mi SSE 6.9 mph - N/A   Clear
6:35 PM 41.0 °F 36.4 °F 17.6 °F 39% 30.20 in 10.0 mi SSE 6.9 mph - N/A   Clear
6:55 PM 41.0 °F 38.0 °F 17.6 °F 39% 30.21 in 10.0 mi SSE 4.6 mph - N/A   Clear
7:15 PM 39.2 °F 35.9 °F 17.6 °F 42% 30.21 in 10.0 mi SE 4.6 mph - N/A   Clear
7:35 PM 39.2 °F 35.0 °F 19.4 °F 45% 30.21 in 10.0 mi SE 5.8 mph - N/A   Clear
7:55 PM 39.2 °F 35.9 °F 19.4 °F 45% 30.22 in 10.0 mi SE 4.6 mph - N/A   Clear
8:15 PM 37.4 °F 33.8 °F 19.4 °F 48% 30.21 in 10.0 mi SE 4.6 mph - N/A   Clear
8:35 PM 41.0 °F 35.2 °F 21.2 °F 45% 30.20 in 10.0 mi SE 9.2 mph - N/A   Clear
8:55 PM 42.8 °F 37.5 °F 19.4 °F 39% 30.20 in 10.0 mi SSE 9.2 mph - N/A   Clear
9:15 PM 42.8 °F 37.5 °F 19.4 °F 39% 30.20 in 10.0 mi SSE 9.2 mph - N/A   Clear
9:35 PM 42.8 °F 37.5 °F 19.4 °F 39% 30.21 in 10.0 mi SSE 9.2 mph - N/A   Clear
9:55 PM 42.8 °F 39.3 °F 19.4 °F 39% 30.22 in 10.0 mi SSE 5.8 mph - N/A   Clear
10:15 PM 41.0 °F 35.2 °F 19.4 °F 42% 30.22 in 10.0 mi SSE 9.2 mph - N/A   Clear
10:55 PM 41.0 °F 36.4 °F 19.4 °F 42% 30.23 in 10.0 mi South 6.9 mph - N/A   Clear
11:15 PM 41.0 °F 36.4 °F 19.4 °F 42% 30.24 in 10.0 mi South 6.9 mph - N/A   Clear
11:35 PM 39.2 °F 34.2 °F 19.4 °F 45% 30.24 in 10.0 mi SSE 6.9 mph - N/A   Clear
11:55 PM 39.2 °F 35.0 °F 19.4 °F 45% 30.24 in 10.0 mi SSE 5.8 mph - N/A   Clear